Other Public Products
Issued by NWS Grand Forks, ND

Home | Current Version | Previous Version | Graphics & Text | Print | Product List | Glossary On
Versions: 1 2 3 4 5 6 7 8 9 10 11 12 13 14 15 16 17 18 19 20 21 22 23 24 25 26 27 28 29 30 31 32 33 34 35 36 37 38 39 40 41 42 43 44 45 46 47 48 49 50
770
FPUS83 KFGF 051631
OPUFGF
PRAIRIE TO PINES WEATHER ROUNDUP
NATIONAL WEATHER SERVICE EASTERN NORTH DAKOTA/GRAND FORKS ND
1000 AM CST FRI FEB 05 2016

 **SATELLITE DATA USED TO AUGMENT SKY COVER AT AUTOMATED STATIONS**
 *****  WEATHER ACROSS EASTERN NORTH DAKOTA  *****

CITY           SKY/WX    TMP DP  RH WIND       PRES   REMARKS
GRAND FORKS    MOSUNNY   20  14  77 SW3       30.13S
GRAND FORKS AF SUNNY     19  14  79 W6        30.13S WCI  11
GRAND CITY NWS   N/A     21 N/A N/A N6          N/A  WCI  14
BUXTON           N/A     23  20  90 SW3         N/A
DEVILS LAKE    CLOUDY    15  12  88 NW7       30.14R WCI   5
FARGO          CLOUDY    21  17  84 S10       30.15S WCI  10
WAHPETON ARPT  CLOUDY    21  18  86 S10       30.17S WCI  10
$$

 *****  WEATHER ACROSS CENTRAL AND WESTERN NORTH DAKOTA  *****

CITY           SKY/WX    TMP DP  RH WIND       PRES   REMARKS
JAMESTOWN      SUNNY     25  18  74 NW12      30.12R WCI  14
BISMARCK       MOSUNNY   29  20  69 NW9       30.19R WCI  20
MINOT          PTSUNNY   23  14  68 SW5       30.14S WCI  17
MINOT AFB      SUNNY     23  18  81 CALM      30.13F
GARRISON         N/A     23  17  78 W8        30.16S WCI  14
WILLISTON      SUNNY     18  15  88 S7        30.17F WCI   9
DICKINSON      MOSUNNY   23  20  88 W16       30.15S WCI  10
HETTINGER      SUNNY     27  22  81 NW15      30.20R WCI  15
$$

 *****  OTHER OBSERVATIONS NORTHEAST NORTH DAKOTA  *****

CITY           SKY/WX    TMP DP  RH WIND       PRES   REMARKS
WALHALLA       FAIR      19  18  93 NW6       30.15S WCI  11
LANGDON        FAIR      12   9  85 CALM      30.10S
CAVALIER       FAIR      16  14  93 CALM      30.15S
GRAFTON        FAIR      16  14  93 NW5       30.17S WCI   9
CANDO          CLOUDY    18  14  86 NW8       30.16R WCI   7
FORT TOTTEN      N/A     19  13  78 NW5       29.95S WCI  12
ROLLA          CLOUDY    19  18  93 NW8       30.11F WCI   9
RUGBY          FAIR      16  16 100 W10       30.14S WCI   3
 ***** THE ABOVE OBSERVATIONS ARE NON NWS ARE NOT QUALITY
        CONTROLLED AND MAY MIS-REPORT RAIN FOR SNOW...
$$

 *****  OTHER OBSERVATIONS SOUTHEAST NORTH DAKOTA *****

CITY           SKY/WX    TMP DP  RH WIND       PRES   REMARKS
COOPERSTOWN    NOT AVBL
VALLEY CITY    CLOUDY    25  23  93 NW12      30.14R WCI  14
OAKES          LGT SNOW  25  25 100 SW5       30.14R WCI  19
GWINNER        NOT AVBL
SHEYENNE NWR     N/A     25  23  91 SW6       29.95S WCI  18
BUFFALO          N/A     26  23  87 W6          N/A  WCI  19
WYNDMERE         N/A     21  19  93 SE6         N/A  WCI  14
 ***** THE ABOVE OBSERVATIONS ARE NON NWS ARE NOT QUALITY
       CONTROLLED AND MAY MIS-REPORT RAIN FOR SNOW...
$$

  *****  WEATHER ACROSS NORTHERN MINNESOTA  *****

CITY           SKY/WX    TMP DP  RH WIND       PRES   REMARKS
FLAG ISLAND    PTSUNNY   12   9  85 SE5       30.13F WCI   4
WARROAD        PTSUNNY   14  10  85 NE3       30.14S
ROSEAU         CLOUDY    18  12  79 S5        30.14R WCI  11
HALLOCK        SUNNY     18  12  79 SE6       30.14F WCI   9
THF RVR FALLS  SUNNY     16   9  73 S8        30.13S WCI   5
HALSTAD          N/A     21  16  81 S9          N/A  WCI  10
FOSSTON        SUNNY     18  12  79 S10       30.12F WCI   6
BAUDETTE       CLOUDY    17  11  77 S6        30.13F WCI   9
WASKISH        PTSUNNY   19  14  79 S3        30.14S
CROOKSTON      SUNNY     19  16  86 SW8       30.15S WCI   9
$$
  *****  WEATHER ACROSS CENTRAL AND WEST MINNESOTA  *****

CITY           SKY/WX    TMP DP  RH WIND       PRES   REMARKS
BEMIDJI        CLOUDY    17  12  80 S7        30.13F WCI   8
PARK RAPIDS    CLOUDY    16  11  80 S7        30.14F WCI   6
WADENA         CLOUDY    18  14  86 S9        30.16S WCI   6
DETROIT LAKES  CLOUDY    23  21  93 S12       30.13F WCI  12
MOORHEAD       LGT RAIN  19  18  93 S12       30.16S WCI   7
FERGUS FALLS   LGT SNOW  21  18  86 S12       30.20S WCI   9
ELBOW LAKE     PTSUNNY   20  15  81 S12       30.17S WCI   8
MORRIS MN      CLOUDY    19  16  86 S13       30.17S WCI   7
STAPLES        CLOUDY    18  12  79 S8        30.18R WCI   7
WHEATON        CLOUDY    21  18  86 SE8       30.19R WCI  12
$$
  *****  WEATHER ELSEWHERE ACROSS MINNESOTA  *****

CITY           SKY/WX    TMP DP  RH WIND       PRES   REMARKS
DULUTH         CLOUDY    14   8  77 SW8       30.23S WCI   3
INTRNTL FALLS  LGT SNOW  16  11  80 SE6       30.16F WCI   7
ELY            CLOUDY     9   7  92 CALM      30.20F
CLOQUET        CLOUDY    16   7  67 S8        30.24S WCI   5
BRAINERD       CLOUDY    16  12  84 S12       30.21S WCI   3
HIBBING        CLOUDY     9   6  88 S3        30.21F
ALEXANDRIA     CLOUDY    20  14  77 S13       30.17S WCI   7
SAINT CLOUD    CLOUDY    16  13  88 S9        30.26S WCI   4
MINNEAPOLIS    CLOUDY    12   8  84 SE6       30.33F WCI   3
$$

  *****  WEATHER ACROSS SOUTH DAKOTA  *****

CITY           SKY/WX    TMP DP  RH WIND       PRES   REMARKS
SIOUX FALLS    CLOUDY    22  15  75 S14       30.21S WCI   9
BROOKINGS      CLOUDY    22  15  75 S17       30.16S WCI   8
WATERTOWN      CLOUDY    23  15  71 S8        30.13S WCI  14
HURON          CLOUDY    23  17  78 S9        30.16S WCI  13
SISSETON         N/A     26  18  71 SW7       30.14S WCI  18
ABERDEEN       CLOUDY    26  21  81 S7        30.15S WCI  18
MITCHELL       CLOUDY    25  19  78 S9        30.18R WCI  15
PIERRE         CLOUDY    34  28  79 NW15      30.15R WCI  24
MOBRIDGE       CLOUDY    33  30  88 NW10      30.15R WCI  25
RAPID CITY     MOSUNNY   30  24  78 N22       30.21R WCI  17
$$

  *****  SOME WEATHER IN NEARBY STATES *****

CITY           SKY/WX    TMP DP  RH WIND       PRES   REMARKS
GLASGOW MT     SUNNY     12   9  87 SE7       30.15F WCI   1
GREAT FALLS MT CLEAR     36  20  52 SW25G31   30.17F
CHEYENNE WY    SUNNY     23   9  55 NW12      30.26R WCI  12
SCOTTSBLUFF NE PTSUNNY   22  12  65 NW14      30.29R WCI   9
OMAHA NE       CLOUDY    25  21  85 S13       30.36F WCI  14
DES MOINES IA  CLOUDY    21  16  81 S6        30.41R WCI  13
DAVENPORT IA   SUNNY     27  18  69 NW5       30.41R WCI  22
CHICAGO IL     PTSUNNY   29  22  75 N12       30.35R WCI  19
EAU CLAIRE WI  CLOUDY    11  10  96 CALM      30.35R
LA CROSSE WI   CLOUDY    11   9  92 S6        30.39R WCI   1
$$

  *****  SOME NATIONAL WEATHER *****

CITY           SKY/WX    TMP DP  RH WIND       PRES   REMARKS
LA GUARDIA NY  LGT SNOW  34  28  80 NW17G33   30.08F WCI  23
RALEIGH NC     MOSUNNY   42  22  44 N12G20    30.35R
ATLANTA GA     MOSUNNY   42  15  33 N14       30.40R
NEW ORLEANS LA SUNNY     47  26  44 NE13      30.53R
OKLAHOMA CITY  MOSUNNY   45  26  47 S17       30.35F
ALBUQUERQUE NM MOSUNNY   26  13  57 N14       30.40R WCI  14
SALT LAKE CITY MOSUNNY   27  23  85 SE7       30.55R WCI  19
LOS ANGELES CA MOSUNNY   56  27  32 NE5       30.33R
BOISE ID       FOG       30  30 100 CALM      30.53R VSB<1/4
SEATTLE WA     MOCLDY    41  39  93 SE5       30.20F
$$

*** WEATHER ACROSS MANITOBA...SASKATCHEWAN AND ONTARIO ***
                ***ONTARIO***

CITY           SKY/WX    TMP DP  RH WIND       PRES   REMARKS
GERALDTON      PTSUNNY    5   3  92 SW8       30.18S WCI  -8
THUNDER BAY    MOSUNNY    7   3  85 SW5       30.29F WCI  -2
SIOUX LOOKOUT  CLOUDY     0  -4  85 S3        30.18S
TORONTO        PTSUNNY   32  19  59 VRB2      30.28F
BIG TROUT LK   SUNNY    -20 -26  76 S3        30.16R
PICKLE LAKE    FLURRIES   1  -6  71 W6        30.13S WCI -10
DRYDEN         LGT SNOW   5   1  85 CALM      30.15F
KENORA         FLURRIES   9   7  92 S7        30.13S WCI  -3
$$
                *** MANITOBA***

CITY           SKY/WX    TMP DP  RH WIND       PRES   REMARKS
BRANDON        CLOUDY    12   9  85 W3        30.12F
DAUPHIN        FLURRIES  14  12  92 W7        30.12F WCI   4
ISLAND LAKE    FLURRIES  -8 -13  77 SW3       30.13F
PILOT MOUND      N/A      9   7  92 NW7         N/A  WCI  -3
THE PAS        FLURRIES   3   0  85 SE5       30.10S WCI  -6
THOMPSON       CRYSTALS -22 -29  69 W2        30.13F
WINNIPEG       FLURRIES   5   0  78 NW5       30.16R WCI  -4
LYNN LAKE      CLEAR    -26 -31  75 NW5       30.09R WCI -40
CHURCHILL      CRYSTALS -36 -44  67 W10       30.17R WCI -61
GILLAM         MOSUNNY  -20 -27  69 NW6       30.14R WCI -36
$$
                ***SASKATCHEWAN***

CITY           SKY/WX    TMP DP  RH WIND       PRES   REMARKS
ESTEVAN        PTSUNNY   16  12  86 SW8       30.10F WCI   5
KINDERSLEY     MOCLDY    10   9  92 S10       29.97F WCI  -3
LLOYDMINSTER   CLOUDY    21  12  68 SW12      29.88F WCI   9
PRINCE ALBERT  CLOUDY    14  10  85 SW3       30.01S
REGINA         MOSUNNY   12  10  92 S3        30.07S
YORKTON        CLOUDY    18  14  86 SW7       30.05F WC1F1C2F2C3F3C4F4C5F5C6F6C7F7C8F8C9F9CaFaCbFbCcFcCdFdCe!



USA.gov is the U.S. government's official web portal to all federal, state and local government web resources and services.